Tyler, TX

10:43 AM CDT on August 17, 2017 (GMT -0500)
Tyler Pounds

Weather History for KTYR - January, 2014

Change the Weather History Date:

Saturday, January 18, 2014

  Actual Average Record
Temperature  
Mean Temperature 48 °F 46 °F  
Max Temperature 65 °F 56 °F 78 °F (1974)
Min Temperature 31 °F 37 °F -3 °F (1930)
Degree Days  
Heating Degree Days 17 19  
Month to date heating degree days 351 342  
Since 1 July heating degree days 1311 1243  
Cooling Degree Days 0 0  
Month to date cooling degree days 0 0  
Year to date cooling degree days 0 0  
Moisture  
Dew Point 26 °F    
Average Humidity 44    
Maximum Humidity 69    
Minimum Humidity 19    
Precipitation  
Precipitation 0.00 in 0.09 in 2.65 in (1945)
Month to date precipitation 0.70 1.77  
Year to date precipitation 0.70 1.77  
Snow  
Snow 0.00 in - - ()
Month to date snowfall 0.0  
Since 1 July snowfall T  
Snow Depth 0.00 in    
Sea Level Pressure  
Sea Level Pressure 30.15 in    
Wind  
Wind Speed 10 mph (SW)    
Max Wind Speed 21 mph    
Max Gust Speed 28 mph    
Visibility 10 miles    
Events      
T = Trace of Precipitation, MM = Missing Value Source: NWS Daily Summary

Daily Weather History Graph

Daily Weather History Graph

Search for Another Location

Airport or City:

Trip Planner

Search our weather history database for the weather conditions in past years. The results will help you decide how hot, cold, wet, or windy it might be!

Date:

Astronomy

Jan. 18, 2014 Rise Set
Actual Time 7:22 AM CST 5:41 PM CST
Civil Twilight 6:56 AM CST 6:08 PM CST
Nautical Twilight 6:26 AM CST 6:38 PM CST
Astronomical Twilight 5:56 AM CST 7:07 PM CST
Moon 8:13 PM CST (1/18) 8:32 AM CST (1/18)
Length of Visible Light 11h 12m
Length of Day
10h 19m
Waning Gibbous, 94% of the Moon is Illuminated
Jan 18
Waning Gibbous
Jan 23
Last Quarter
Jan 30
New
Feb 6
First Quarter
Feb 14
Full

Hourly Weather History & Observations

Time (CST) Temp. Windchill Dew Point Humidity Pressure Visibility Wind Dir Wind Speed Gust Speed Precip Events Conditions
12:53 AM 33.1 °F 26.1 °F 19.9 °F 59% 30.23 in 10.0 mi South 8.1 mph - N/A   Clear
1:53 AM 33.1 °F 26.1 °F 19.9 °F 59% 30.22 in 10.0 mi South 8.1 mph - N/A   Clear
2:53 AM 35.1 °F 28.6 °F 19.0 °F 52% 30.22 in 10.0 mi South 8.1 mph - N/A   Clear
3:53 AM 34.0 °F 27.2 °F 19.9 °F 56% 30.22 in 10.0 mi South 8.1 mph - N/A   Clear
4:53 AM 34.0 °F 28.0 °F 19.9 °F 56% 30.20 in 10.0 mi South 6.9 mph - N/A   Clear
5:53 AM 34.0 °F 27.2 °F 19.9 °F 56% 30.19 in 10.0 mi South 8.1 mph - N/A   Clear
6:53 AM 33.1 °F 26.1 °F 19.9 °F 59% 30.19 in 10.0 mi South 8.1 mph - N/A   Clear
7:53 AM 37.0 °F 33.3 °F 19.9 °F 50% 30.19 in 10.0 mi SSW 4.6 mph - N/A   Clear
8:53 AM 44.1 °F 39.0 °F 19.9 °F 38% 30.19 in 10.0 mi SSW 9.2 mph - N/A   Clear
9:53 AM 50.0 °F - 19.9 °F 31% 30.21 in 10.0 mi SW 11.5 mph - N/A   Clear
10:53 AM 55.0 °F - 21.9 °F 28% 30.20 in 10.0 mi SW 10.4 mph 21.9 mph N/A   Clear
11:53 AM 57.9 °F - 19.9 °F 23% 30.17 in 10.0 mi SW 19.6 mph 26.5 mph 0.00 in   Clear
12:53 PM 61.0 °F - 21.0 °F 21% 30.12 in 10.0 mi SW 13.8 mph 20.7 mph N/A   Clear
1:53 PM 64.0 °F - 21.9 °F 20% 30.08 in 10.0 mi SW 19.6 mph 25.3 mph N/A   Clear
2:53 PM 64.9 °F - 26.1 °F 23% 30.06 in 10.0 mi SW 13.8 mph 21.9 mph N/A   Clear
3:53 PM 64.9 °F - 30.9 °F 28% 30.06 in 10.0 mi WSW 15.0 mph 27.6 mph N/A   Clear
4:53 PM 63.0 °F - 32.0 °F 31% 30.05 in 10.0 mi WSW 12.7 mph 23.0 mph N/A   Clear
5:53 PM 59.0 °F - 33.1 °F 38% 30.08 in 10.0 mi WSW 6.9 mph - N/A   Clear
6:53 PM 57.9 °F - 34.0 °F 41% 30.08 in 10.0 mi SSW 9.2 mph - N/A   Clear
7:53 PM 57.0 °F - 36.0 °F 45% 30.07 in 10.0 mi SW 8.1 mph - N/A   Clear
8:53 PM 55.0 °F - 37.0 °F 51% 30.09 in 10.0 mi WSW 6.9 mph - N/A   Clear
9:53 PM 53.1 °F - 37.0 °F 55% 30.12 in 10.0 mi West 8.1 mph - N/A   Clear
10:53 PM 52.0 °F - 36.0 °F 54% 30.15 in 10.0 mi NW 4.6 mph - N/A   Clear
11:53 PM 48.9 °F - 33.1 °F 54% 30.16 in 10.0 mi NNW 6.9 mph - N/A   Clear